Regional Weather Roundup
Issued by NWS

Home | Current Version | Previous Version | Text Only | Print | Product List | Glossary Off
Versions: 1 2 3 4 5 6 7 8 9 10 11 12 13 14 15 16 17 18 19 20 21 22 23 24 25 26 27 28 29 30 31 32 33 34 35 36 37 38 39 40 41 42 43 44 45 46 47 48 49 50

164
ASUS44 KLIX 272201
RWRLA
LOUISIANA WEATHER ROUNDUP
NATIONAL WEATHER SERVICE NEW ORLEANS LA
500 PM CDT WED AUG 27 2014

NOTE: "FAIR" INDICATES FEW OR NO CLOUDS BELOW 12,000 FEET WITH NO
      SIGNIFICANT WEATHER AND/OR OBSTRUCTIONS TO VISIBILITY.
      SKY/WX - SKY CONDITION AND SIGNIFICANT WEATHER.
      TMP - AIR TEMPERATURE.    DP   - DEWPOINT TEMPERATURE.
      RH  - RELATIVE HUMIDITY.  PRES - PRESSURE.
      HX  - HEAT INDEX.         WCI  - WIND CHILL INDEX.

*  THESE STATIONS ARE NOT NWS OR FAA STATIONS AND ARE NOT UNDER
   NWS QUALITY CONTROL.

LAZ040-048-061>063-065-066-069-272300-
SOUTHEAST LOUISIANA

CITY           SKY/WX    TMP DP  RH WIND       PRES   REMARKS
N.O. AUDUBON   NOT AVBL
N.O. INTL ARPT CLOUDY    86  74  67 E8        29.98S
N.O. LAKEFRONT CLOUDY    86  76  71 E13       29.98S HX  96
N.O. DOWNTOWN* CLOUDY    84  72  65 SE6       29.99R
SLIDELL        HVY RAIN  78  71  79 S10G16    29.98S VSB 1
BATON ROUGE    PTSUNNY   90  73  57 E6        29.97S HX  98
BOOTHVILLE     PTSUNNY   87  76  69 E12       29.98S HX  97
BELLE CHASSE   LGT RAIN  82  76  81 E3        29.97F
BOGALUSA*      CLOUDY    85  74  71 SW5       29.98F
GALLIANO*      NOT AVBL
NEW ROADS*     FAIR      89  73  58 CALM      29.96F HX  96
GONZALES*      NOT AVBL
HAMMOND*       NOT AVBL
HOUMA*         MOSUNNY   84  73  70 NE7       29.97F
PORT FOURCHON* CLEAR     88  72  58 E12       29.98S

$$

LAZ041-044-053-054-272300-
SOUTHWEST LOUISIANA

CITY           SKY/WX    TMP DP  RH WIND       PRES   REMARKS
LAKE CHARLES   PTSUNNY   89  72  56 E9        29.95S HX  96
LAFAYETTE      MOSUNNY   88  73  61 SE7       29.96S HX  95
PATTERSON      CLOUDY    84  73  70 E12       30.00S
SALT POINT       N/A     89  75  63 VRB7      29.96S HX  99
NEW IBERIA     LGT RAIN  80  72  76 SE7       29.97S
CHENAULT AIRPK MOSUNNY   88  72  58 E3        29.96F

$$

LAZ027-028-272300-
CENTRAL LOUISIANA

CITY           SKY/WX    TMP DP  RH WIND       PRES   REMARKS
FORT POLK      PTSUNNY   89  70  53 NE6       29.97S
ALEXANDRIA INT SUNNY     92  69  47 E6        29.95F HX  97
ALEXANDRIA     SUNNY     94  71  47 E5        29.97F HX 101

$$

LAZ001-002-272300-
NORTHWEST LOUISIANA

CITY           SKY/WX    TMP DP  RH WIND       PRES   REMARKS
SHREVEPORT     PTSUNNY   93  61  34 E5        29.97F
BARKSDALE AFB  MOSUNNY   92  61  35 E5        29.98F
DTN SHREVEPORT MOSUNNY   93  63  36 NE5       29.98F

$$

LAZ014-016-272300-
NORTHEAST LOUISIANA

CITY           SKY/WX    TMP DP  RH WIND       PRES   REMARKS
MONROE         MOSUNNY   93  65  39 N6        29.99F HX  95
TALLULAH       SUNNY     94  66  39 NE7       29.99F HX  97

$$




USA.gov is the U.S. government's official web portal to all federal, state and local government web resources and services.